Preview of NWS' New Version of Forecast
This preview is not operational and should not be used for support decisions.

Regional Weather Roundup (RWR)

Issued by National Weather Service (NWS)

                            
000
ASUS43 KLSX 190057
RWRMO 

WEATHER SUMMARY FOR MISSOURI
NATIONAL WEATHER SERVICE SPRINGFIELD MO
800 PM CDT MON MAR 18 2019

NOTE: "FAIR" INDICATES FEW OR NO CLOUDS BELOW 12,000 FEET WITH NO
       SIGNIFICANT WEATHER AND/OR OBSTRUCTIONS TO VISIBILITY.
       CURRENT SKY AND/OR WEATHER CONDITIONS ARE NOT AVAILABLE FOR
       CHILLICOTHE AND FARMINGTON.

MOZ001>031-035>038-043-044-053-054-190200-
...NORTHERN AND WESTERN MISSOURI...
  
CITY           SKY/WX    TMP DP  RH WIND       PRES   REMARKS
KANSAS CTY INT MOCLDY    45  22  40 NE6       30.33S                  
LEE'S SUMMIT   CLEAR     47  23  38 E6        30.33S                  
ST JOSEPH      CLOUDY    43  25  49 N6        30.35S                  
CHILLICOTHE      N/A     42  28  57 CALM      30.37S                  
     
$$
MOZ066>068-077>081-088>096-101>105-190200-
...SOUTHWEST MISSOURI...
  
CITY           SKY/WX    TMP DP  RH WIND       PRES   REMARKS
SPRINGFIELD    CLEAR     50  27  40 NE7       30.32R                  
JOPLIN         CLEAR     51  31  46 NE6       30.31R                  
BRANSON        PTCLDY    50  27  40 CALM      30.31R                  
               
$$
MOZ032>034-039>042-045>050-055>058-069>072-190200-
...CENTRAL MISSOURI...  
  
CITY           SKY/WX    TMP DP  RH WIND       PRES   REMARKS
COLUMBIA       NOT AVBL                                               
JEFFERSON CITY CLEAR     50  18  28 NE6       30.36S                  
ROLLA          CLEAR     44  20  38 CALM      30.36R                  
SEDALIA        CLEAR     45  25  45 N3        30.36S                  
WARRENSBURG    CLEAR     45  23  42 NE6       30.35S                  
               
$$
MOZ051-052-059>065-190200-
...EAST CENTRAL MISSOURI...
  
CITY           SKY/WX    TMP DP  RH WIND       PRES   REMARKS
ST LOUIS INTL  MOCLDY    47  17  30 N3        30.38S                  
                   
$$
MOZ072>076-082>087-097>100-106>115-190200-
...SOUTH CENTRAL AND SOUTHEAST MISSOURI...
  
CITY           SKY/WX    TMP DP  RH WIND       PRES   REMARKS
CAPE GIRARDEAU FAIR      47  31  53 SE3       30.37R                  
POPLAR BLUFF   FAIR      47  34  60 SE7       30.37R                  
WEST PLAINS    CLEAR     50  23  34 NE3       30.33R                  
                                       
$$